Weather History for Volk, WI

Change the Weather History Date:

Thursday, December 6, 2012

  Actual Average Record
Temperature  
Mean Temperature 39 °F -  
Max Temperature 46 °F 34 °F 50 °F (2001)
Min Temperature 32 °F 22 °F -15 °F (2007)
Degree Days  
Heating Degree Days 26    
Moisture  
Dew Point 31 °F    
Average Humidity 73    
Maximum Humidity 85    
Minimum Humidity 62    
Precipitation  
Precipitation 0.00 in - - ()
Sea Level Pressure  
Sea Level Pressure 29.93 in    
Wind  
Wind Speed 11 mph (SW)    
Max Wind Speed 17 mph    
Max Gust Speed 22 mph    
Visibility 10 miles    
Events      
Averages and records for this station are not official NWS values.
T = Trace of Precipitation, MM = Missing Value Source: NWS Daily Summary

Daily Weather History Graph

Daily Weather History Graph

Search for Another Location

Airport:

Trip Planner

Search our weather history database for the weather conditions in past years. The results will help you decide how hot, cold, wet, or windy it might be!

Date:

Astronomy

Dec. 06, 2012 Rise Set
Actual Time 7:21 AM CST 4:23 PM CST
Civil Twilight 6:48 AM CST 4:55 PM CST
Nautical Twilight 6:12 AM CST 5:32 PM CST
Astronomical Twilight 5:37 AM CST 6:06 PM CST
Moon No Moon Rise 12:02 PM CST (12/6)
Length of Visible Light 10h 07m
Length of Day
9h 01m
Waning Gibbous, 49% of the Moon is Illuminated
Dec 6
Waning Gibbous
Dec 13
New
Dec 19
First Quarter
Dec 28
Full
Jan 4
Last Quarter

Hourly Weather History & Observations

Time (CST) Temp. Windchill Dew Point Humidity Pressure Visibility Wind Dir Wind Speed Gust Speed Precip Events Conditions
12:55 AM 34.5 °F 26.2 °F 25.0 °F 68% 30.10 in 10.0 mi SSE 11.5 mph - N/A   Partly Cloudy
1:55 AM 35.2 °F 26.2 °F 25.7 °F 68% 30.08 in 10.0 mi SSE 13.8 mph - N/A   Partly Cloudy
2:55 AM 35.6 °F 28.0 °F 26.4 °F 69% 30.06 in 10.0 mi SSE 10.4 mph - N/A   Clear
3:55 AM 36.0 °F 27.5 °F 27.1 °F 70% 30.01 in 10.0 mi SSE 12.7 mph - N/A   Clear
4:55 AM 36.9 °F 29.6 °F 28.4 °F 71% 30.01 in 10.0 mi South 10.4 mph - N/A   Partly Cloudy
5:55 AM 36.5 °F 27.8 °F 28.8 °F 74% 29.99 in 10.0 mi South 13.8 mph - N/A   Scattered Clouds
7:35 AM 39.2 °F 30.5 °F 30.2 °F 70% 29.91 in 10.0 mi South 16.1 mph 21.9 mph N/A   Overcast
7:55 AM 39.2 °F 30.2 °F 30.2 °F 70% 29.94 in 10.0 mi South 17.3 mph - N/A   Overcast
8:55 AM 39.2 °F 32.0 °F 30.2 °F 70% 29.95 in 10.0 mi South 11.5 mph - N/A   Overcast
9:55 AM 41.0 °F 32.8 °F 32.0 °F 70% 29.94 in 10.0 mi South 16.1 mph 21.9 mph N/A   Overcast
10:55 AM 41.0 °F 34.3 °F 32.0 °F 70% 29.91 in 10.0 mi South 11.5 mph - N/A   Overcast
11:55 AM 42.8 °F 36.6 °F 33.8 °F 70% 29.85 in 10.0 mi South 11.5 mph 20.7 mph N/A   Overcast
12:55 PM 44.6 °F 40.7 °F 33.8 °F 66% 29.86 in 10.0 mi SW 6.9 mph - N/A   Overcast
1:55 PM 46.4 °F 40.1 °F 33.8 °F 62% 29.83 in 10.0 mi SW 15.0 mph - N/A   Overcast
2:49 PM 46.4 °F 42.4 °F 35.6 °F 66% 29.84 in 10.0 mi WSW 8.1 mph - N/A   Overcast
2:55 PM 46.4 °F 41.9 °F 35.6 °F 66% 29.84 in 10.0 mi WSW 9.2 mph - N/A   Overcast
3:55 PM 44.6 °F 40.7 °F 35.6 °F 71% 29.84 in 10.0 mi WSW 6.9 mph - N/A   Mostly Cloudy
4:55 PM 42.8 °F 40.1 °F 35.6 °F 76% 29.85 in 10.0 mi SW 4.6 mph - N/A   Mostly Cloudy
5:48 PM 41.0 °F 39.0 °F 33.8 °F 76% 29.84 in 10.0 mi WSW 3.5 mph - N/A   Mostly Cloudy
5:55 PM 41.0 °F 39.0 °F 33.8 °F 76% 29.87 in 10.0 mi West 3.5 mph - N/A   Mostly Cloudy
6:55 PM 41.0 °F 33.9 °F 35.6 °F 81% 29.89 in 10.0 mi WNW 12.7 mph - N/A   Mostly Cloudy
7:55 PM 37.2 °F 30.6 °F 32.2 °F 82% 29.91 in 10.0 mi WNW 9.2 mph - N/A   Partly Cloudy
8:55 PM 36.5 °F 31.0 °F 31.1 °F 81% 29.93 in 10.0 mi NW 6.9 mph - N/A   Clear
9:55 PM 32.2 °F 28.9 °F 28.2 °F 85% 29.94 in 10.0 mi West 3.5 mph - N/A   Scattered Clouds
10:55 PM 34.2 °F 27.5 °F 29.7 °F 84% 29.94 in 10.0 mi WNW 8.1 mph - N/A   Scattered Clouds
11:55 PM 35.2 °F 28.1 °F 29.3 °F 79% 29.94 in 10.0 mi WNW 9.2 mph - N/A   Mostly Cloudy